Date,TemperatureHighF,TemperatureAvgF,TemperatureLowF,DewpointHighF,DewpointAvgF,DewpointLowF,HumidityHigh,HumidityAvg,HumidityLow,PressureMaxIn,PressureMinIn,WindSpeedMaxMPH,WindSpeedAvgMPH,GustSpeedMaxMPH,PrecipitationSumIn
2014-1-1,65.3,47.4,34.3,40.5,35.8,29.3,86,66,36,30.22,30.11,6,0,6,0.00
2014-1-2,65.0,48.9,35.9,41.8,37.1,31.7,86,66,41,30.18,30.05,7,0,7,0.00
2014-1-3,62.7,47.5,35.1,43.0,38.0,31.4,92,71,46,30.09,29.94,5,0,5,0.00
2014-1-4,65.6,48.9,34.9,42.9,37.5,31.3,89,67,39,30.08,29.96,7,0,7,0.00
2014-1-5,66.3,49.0,35.9,43.5,37.7,32.1,89,67,39,30.22,30.08,6,0,7,0.00
2014-1-6,65.9,48.4,33.2,40.9,36.5,29.4,89,66,32,30.29,30.15,5,0,5,0.00
2014-1-7,63.6,49.8,39.7,41.4,37.5,33.7,83,65,36,30.20,30.09,6,1,7,0.00
2014-1-8,60.3,47.3,35.4,41.8,37.2,31.3,88,69,49,30.22,30.10,11,1,11,0.00
2014-1-9,59.4,49.0,37.7,46.2,41.3,34.6,90,76,59,30.23,30.12,7,1,8,0.00
2014-1-10,61.9,50.5,40.0,47.0,42.8,36.6,90,76,57,30.28,30.17,8,1,8,0.00
2014-1-11,63.5,50.8,37.5,47.5,42.9,34.9,92,76,52,30.25,30.10,8,1,9,0.00
2014-1-12,55.4,46.0,38.2,46.8,42.4,36.6,97,88,71,30.36,30.19,9,1,10,0.00
2014-1-13,61.7,46.6,34.2,46.4,40.3,32.6,95,80,55,30.48,30.34,7,0,7,0.00
2014-1-14,63.4,47.3,33.5,44.3,38.9,31.1,93,75,46,30.48,30.34,8,0,8,0.00
2014-1-15,67.0,49.1,34.1,45.5,39.2,31.4,91,71,42,30.35,30.21,6,0,7,0.00
2014-1-16,70.2,51.1,35.3,47.1,40.2,31.8,88,69,39,30.25,30.12,6,0,6,0.00
2014-1-17,73.5,53.2,35.5,44.0,37.9,31.3,85,61,29,30.20,30.08,6,1,6,0.00
2014-1-18,69.3,51.2,35.7,44.5,37.3,30.1,81,62,35,30.18,30.06,7,1,8,0.00
2014-1-19,70.6,50.9,34.6,42.4,36.4,29.8,84,61,30,30.14,30.03,6,0,6,0.00
2014-1-20,70.2,49.8,35.4,43.0,37.2,30.7,87,65,34,30.24,30.10,6,1,8,0.00
2014-1-21,67.2,50.3,35.4,42.4,37.5,30.6,86,64,35,30.24,30.14,5,1,7,0.00
2014-1-22,67.9,53.4,39.0,42.9,38.9,34.4,84,60,35,30.18,29.92,5,0,6,0.00
2014-1-23,68.0,53.7,37.4,41.2,36.1,30.8,77,54,30,30.02,29.84,5,1,8,0.00
2014-1-24,76.5,58.9,45.8,42.2,35.9,29.6,75,47,19,30.20,30.02,7,1,10,0.00
2014-1-25,74.7,59.2,46.4,41.0,36.3,32.8,72,45,24,30.23,30.10,5,1,10,0.00
2014-1-26,69.4,55.0,45.3,43.5,35.7,31.0,70,50,29,30.12,29.99,8,1,8,0.00
2014-1-27,68.6,53.6,39.5,40.6,36.4,32.0,78,55,32,30.16,30.02,6,1,8,0.00
2014-1-28,68.7,55.1,44.1,41.6,37.3,34.1,69,53,34,30.23,30.12,8,1,8,0.00
2014-1-29,69.9,56.8,43.4,48.6,41.6,35.2,76,58,38,30.19,29.92,8,1,9,0.00
2014-1-30,56.0,52.5,49.2,52.2,46.9,40.3,96,82,62,29.94,29.81,10,1,11,0.10
2014-1-31,59.2,50.2,42.4,50.0,43.9,35.8,100,80,51,30.02,29.84,13,2,13,0.11
2014-2-1,58.9,45.4,35.0,37.9,34.7,31.0,93,69,37,30.14,30.01,7,1,8,0.00
2014-2-2,55.7,46.7,37.9,43.1,37.7,32.8,87,72,47,30.11,29.91,17,2,17,0.03
2014-2-3,56.5,45.1,36.2,45.0,39.0,34.3,96,80,55,30.05,29.91,11,1,11,0.00
2014-2-4,56.6,45.3,33.2,44.0,38.6,31.4,96,78,54,30.13,30.03,11,2,12,0.00
2014-2-5,59.2,47.2,36.2,42.3,38.2,33.7,93,73,46,30.20,30.07,12,1,12,0.00
2014-2-6,51.5,48.2,45.6,47.0,44.3,39.0,94,87,73,30.09,29.90,15,2,15,0.35
2014-2-7,57.1,51.8,47.3,50.6,48.2,45.9,96,88,71,30.18,30.03,10,2,14,0.04
2014-2-8,64.1,55.9,49.7,52.9,50.3,48.1,95,82,64,30.24,30.15,12,2,13,0.01
2014-2-9,67.3,59.6,51.7,55.6,53.0,49.1,93,79,61,30.20,30.07,13,2,14,0.00
2014-2-10,69.0,58.8,52.0,57.4,53.5,49.7,96,83,57,30.20,30.10,12,3,14,0.01
2014-2-11,65.8,56.0,49.9,54.5,51.6,47.9,94,86,65,30.22,30.13,9,1,9,0.00
2014-2-12,68.5,55.7,43.3,55.5,50.2,42.1,97,83,58,30.26,30.13,10,1,10,0.00
2014-2-13,70.6,56.9,45.8,56.7,51.0,44.2,97,82,58,30.20,30.06,11,1,12,0.00
2014-2-14,76.3,59.9,46.0,56.9,51.3,44.3,96,76,44,30.15,30.01,8,1,8,0.00
2014-2-15,70.4,56.3,46.0,58.0,49.9,42.7,90,80,53,30.05,29.94,11,1,11,0.00
2014-2-16,70.7,60.0,52.8,55.9,52.3,46.3,94,76,57,30.14,29.96,11,2,11,0.00
2014-2-17,69.2,56.0,45.2,53.0,46.8,41.7,88,72,55,30.12,30.01,10,2,10,0.00
2014-2-18,63.4,52.6,43.9,48.3,44.4,40.1,92,74,55,30.18,30.03,9,1,10,0.00
2014-2-19,68.8,55.5,45.0,51.1,46.8,42.4,92,74,50,30.14,30.01,13,2,13,0.00
2014-2-20,65.7,53.7,42.7,45.8,42.1,38.6,88,66,46,30.19,30.07,10,2,12,0.00
2014-2-21,69.4,56.1,42.5,49.6,44.4,39.3,89,67,46,30.10,29.95,8,1,9,0.00
2014-2-22,71.8,58.3,44.1,49.3,45.1,40.8,90,64,38,29.98,29.88,9,1,9,0.00
2014-2-23,74.3,60.0,45.9,48.2,45.2,41.6,87,61,36,30.00,29.89,9,1,9,0.00
2014-2-24,77.3,61.8,46.6,50.1,45.3,41.2,82,58,32,29.99,29.85,6,1,8,0.00
2014-2-25,77.8,63.0,48.1,47.4,44.2,41.1,77,53,30,29.95,29.82,8,1,9,0.00
2014-2-26,65.0,58.6,53.1,55.3,49.4,43.3,90,72,58,30.01,29.78,10,2,10,0.17
2014-2-27,69.5,59.9,52.5,55.4,49.8,42.9,93,71,39,29.97,29.67,16,3,18,0.15
2014-2-28,69.0,57.1,52.2,58.3,50.7,42.7,93,80,55,29.67,29.42,37,5,37,0.81
2014-3-1,64.5,57.8,52.1,51.2,47.9,44.8,89,70,50,29.88,29.62,18,3,20,0.00
2014-3-2,64.8,56.2,48.0,52.4,48.6,44.6,92,76,58,30.13,29.88,11,1,13,0.00
2014-3-3,67.3,56.2,46.7,56.0,51.1,44.9,97,84,61,30.16,30.03,9,1,9,0.00
2014-3-4,69.0,61.4,54.0,56.0,53.9,51.3,92,77,57,30.09,30.00,11,2,12,0.00
2014-3-5,71.0,62.3,54.6,58.4,55.4,51.6,92,79,62,30.11,30.00,9,1,10,0.00
2014-3-6,73.9,62.9,53.4,61.1,54.7,46.5,90,75,55,30.09,30.00,14,4,17,0.00
2014-3-7,65.5,55.9,48.7,51.2,49.0,45.8,91,78,58,30.15,30.05,11,1,11,0.00
2014-3-8,75.5,59.9,46.3,53.5,47.5,42.9,92,67,33,30.19,30.09,8,1,9,0.00
2014-3-9,74.3,63.8,52.3,54.0,49.8,46.7,85,62,39,30.18,30.05,10,1,11,0.00
2014-3-10,75.6,62.4,51.1,55.4,50.1,43.4,83,65,39,30.12,30.02,18,4,18,0.00
2014-3-11,67.9,56.7,45.8,48.0,44.9,40.8,86,66,38,30.11,29.97,9,1,10,0.00
2014-3-12,72.7,58.2,46.7,53.2,45.1,39.8,89,65,32,30.07,29.94,9,2,12,0.00
2014-3-13,76.7,60.3,42.5,44.0,39.7,31.7,84,51,22,30.00,29.92,9,1,9,0.00
2014-3-14,76.3,62.0,47.2,44.7,39.7,36.3,69,46,25,30.16,30.00,12,2,13,0.00
2014-3-15,78.5,63.8,49.9,51.2,45.9,41.3,75,54,34,30.28,30.16,9,1,9,0.00
2014-3-16,84.4,66.8,50.6,51.3,46.6,41.2,80,52,24,30.29,30.08,8,1,9,0.00
2014-3-17,73.1,61.4,51.5,49.1,45.0,37.4,73,56,39,30.10,29.86,15,4,16,0.00
2014-3-18,72.6,58.4,44.4,44.8,40.4,37.1,81,53,34,29.95,29.85,6,1,10,0.00
2014-3-19,79.3,62.9,47.4,45.9,40.6,26.8,80,49,15,30.06,29.95,10,1,10,0.00
2014-3-20,79.6,63.9,46.8,47.3,41.8,36.2,75,47,22,30.02,29.85,10,1,10,0.00
2014-3-21,79.6,65.7,51.0,49.6,45.5,40.8,81,51,27,29.91,29.81,12,2,12,0.00
2014-3-22,75.8,61.8,47.6,49.1,44.8,40.5,83,57,29,30.04,29.88,10,1,10,0.00
2014-3-23,79.0,63.6,47.4,48.5,43.4,38.8,80,51,25,30.10,29.98,10,1,10,0.00
2014-3-24,82.4,65.3,48.3,48.6,44.9,39.1,80,51,25,30.10,29.93,9,1,10,0.00
2014-3-25,78.3,64.3,51.4,53.6,45.1,30.8,79,54,19,29.96,29.76,16,3,16,0.00
2014-3-26,61.2,56.8,52.3,51.4,49.5,45.6,92,77,61,29.96,29.80,14,3,14,0.13
2014-3-27,67.7,56.7,45.7,51.1,45.8,39.4,96,70,37,30.08,29.96,14,2,14,0.01
2014-3-28,72.5,59.1,45.7,49.2,45.2,42.4,89,63,36,30.20,30.07,9,1,10,0.00
2014-3-29,77.9,63.1,48.8,53.8,47.1,42.1,88,60,30,30.11,29.85,21,3,25,0.05
2014-3-30,63.9,55.8,48.6,49.7,46.8,42.2,94,74,48,30.13,29.99,17,2,23,0.30
2014-3-31,67.8,54.8,46.3,49.1,46.1,38.4,91,75,35,30.04,29.82,22,3,22,0.17
2014-4-1,63.2,52.6,42.2,47.2,42.9,34.0,96,72,36,30.01,29.87,20,3,20,0.01
2014-4-2,63.0,53.6,44.8,46.2,43.4,39.0,92,71,43,30.08,29.90,12,2,12,0.02
2014-4-3,67.3,56.9,44.7,47.7,44.5,41.0,89,65,43,30.13,29.98,7,1,12,0.00
2014-4-4,67.0,56.6,46.3,49.2,44.8,42.1,86,66,42,30.01,29.90,13,3,17,0.00
2014-4-5,68.2,55.9,44.3,49.3,45.8,41.6,92,71,43,30.14,29.98,13,2,14,0.00
2014-4-6,74.7,61.6,48.3,52.5,48.4,44.3,86,64,42,30.20,30.06,10,2,10,0.00
2014-4-7,85.2,68.8,51.4,55.6,51.2,46.4,86,57,27,30.13,30.00,8,1,9,0.00
2014-4-8,88.3,72.9,57.4,56.6,51.3,45.4,72,50,24,30.08,29.93,8,1,9,0.00
2014-4-9,88.9,72.7,57.7,55.4,50.3,43.2,70,48,21,30.02,29.87,10,1,11,0.00
2014-4-10,88.8,72.2,54.9,56.5,52.4,47.1,80,53,26,29.96,29.81,12,2,12,0.00
2014-4-11,88.3,74.7,60.6,58.4,52.9,43.4,80,50,24,29.86,29.70,10,2,11,0.00
2014-4-12,81.0,68.4,55.3,57.2,49.1,42.7,75,52,32,29.83,29.75,12,2,12,0.00
2014-4-13,78.6,65.1,52.7,55.6,52.4,48.7,87,65,42,29.98,29.83,14,2,20,0.00
2014-4-14,86.3,71.8,57.2,56.5,52.4,44.9,83,54,24,30.04,29.93,10,1,10,0.00
2014-4-15,87.8,72.0,57.1,53.7,47.7,36.6,80,47,17,29.97,29.76,13,2,15,0.00
2014-4-16,85.9,69.4,53.1,54.6,49.6,43.0,80,52,27,29.84,29.71,10,2,12,0.00
2014-4-17,85.5,71.6,55.3,57.2,50.6,44.6,81,51,27,29.81,29.69,10,1,10,0.00
2014-4-18,80.5,69.6,58.0,55.3,52.9,49.2,78,57,39,29.85,29.72,11,2,11,0.00
2014-4-19,84.7,69.9,58.4,58.3,49.7,31.6,80,53,21,30.02,29.84,15,2,17,0.00
2014-4-20,82.2,67.2,52.2,54.8,50.2,44.7,86,58,32,30.09,29.98,11,2,11,0.00
2014-4-21,84.2,70.7,55.4,55.5,50.9,45.3,81,53,29,30.02,29.82,9,2,9,0.00
2014-4-22,71.2,62.6,56.0,50.1,40.0,28.5,67,46,22,30.01,29.85,15,6,21,0.00
2014-4-23,73.5,59.6,45.9,45.3,41.0,37.3,80,53,29,30.07,29.97,12,2,14,0.00
2014-4-24,79.3,64.5,48.7,50.3,45.5,41.3,82,53,29,30.06,29.86,13,2,13,0.00
2014-4-25,65.4,57.7,48.2,56.5,51.6,44.5,92,81,52,29.88,29.75,23,4,23,0.28
2014-4-26,65.1,54.7,47.8,48.9,46.3,44.5,93,75,50,30.02,29.79,12,3,13,0.03
2014-4-27,71.3,59.3,46.4,50.5,45.3,41.6,86,62,37,30.08,29.97,11,2,12,0.00
2014-4-28,76.2,62.5,49.9,50.8,47.7,41.1,86,62,30,30.16,30.02,13,3,14,0.00
2014-4-29,86.8,69.9,51.9,53.0,48.3,41.9,85,51,22,30.18,30.00,10,2,10,0.00
2014-4-30,91.1,74.3,56.4,53.7,47.9,35.1,82,46,15,30.08,29.94,13,2,13,0.00
2014-5-1,93.0,77.7,59.8,58.2,52.2,44.0,73,44,23,30.06,29.94,12,2,13,0.00
2014-5-2,94.0,76.6,57.7,55.9,51.2,44.1,81,45,19,30.01,29.86,10,2,10,0.00
2014-5-3,88.6,73.0,58.0,56.4,50.8,47.5,70,48,25,29.96,29.80,11,2,11,0.00
2014-5-4,80.2,66.7,54.2,51.9,49.1,46.2,76,55,34,30.00,29.87,10,3,13,0.00
2014-5-5,76.5,65.1,54.0,52.8,49.7,43.4,85,59,38,29.98,29.78,24,4,26,0.02
2014-5-6,66.7,57.8,51.3,50.2,47.3,44.4,87,69,50,29.90,29.81,16,2,17,0.07
2014-5-7,76.9,65.2,51.8,51.4,48.2,43.1,87,57,31,29.91,29.82,12,3,13,0.00
2014-5-8,78.7,66.0,54.0,51.5,48.2,44.5,78,55,32,30.03,29.91,12,2,12,0.00
2014-5-9,81.0,69.0,60.2,58.6,53.2,47.6,83,60,34,30.06,29.94,14,4,17,0.00
2014-5-10,76.5,63.6,50.7,48.6,43.2,27.5,76,50,18,30.03,29.84,20,5,20,0.00
2014-5-11,79.0,65.0,47.4,46.2,39.9,25.7,82,44,17,30.02,29.89,10,1,10,0.00
2014-5-12,87.7,72.3,55.4,46.8,40.3,28.6,56,35,13,30.08,29.95,11,2,12,0.00
2014-5-13,93.8,76.9,58.4,49.5,41.8,31.3,57,32,14,30.12,30.00,9,1,10,0.00
2014-5-14,97.0,80.5,61.2,53.9,45.0,33.6,58,32,12,30.09,29.95,11,2,11,0.00
2014-5-15,100.0,82.5,62.1,55.1,49.7,43.2,66,35,15,30.04,29.89,12,2,13,0.00
2014-5-16,96.2,79.5,63.2,53.6,47.2,40.8,63,35,18,29.99,29.82,16,2,16,0.00
2014-5-17,91.7,75.5,59.6,51.1,44.2,35.1,67,37,14,29.91,29.76,14,3,16,0.00
2014-5-18,82.7,70.7,56.9,51.2,47.4,41.6,68,45,27,29.91,29.78,16,4,16,0.00
2014-5-19,81.6,67.8,53.9,49.4,44.3,33.3,69,46,18,29.91,29.76,20,4,20,0.00
2014-5-20,73.5,64.1,56.8,48.9,46.5,40.3,72,54,32,29.97,29.85,14,4,16,0.00
2014-5-21,77.2,67.9,61.2,53.8,50.5,46.7,71,54,40,29.92,29.85,13,2,15,0.00
2014-5-22,84.3,72.5,60.6,54.2,50.7,48.4,68,48,31,29.91,29.83,18,3,19,0.00
2014-5-23,89.1,76.1,61.0,57.8,52.7,49.6,67,46,28,29.95,29.80,11,3,11,0.00
2014-5-24,91.3,78.8,63.5,60.2,56.4,52.5,75,48,29,29.90,29.76,12,3,13,0.00
2014-5-25,94.9,81.5,67.0,62.5,57.0,52.8,66,45,29,29.90,29.76,12,2,13,0.00
2014-5-26,96.6,81.5,66.9,57.6,54.1,50.1,64,41,22,29.91,29.81,14,3,15,0.00
2014-5-27,96.3,79.2,62.9,54.6,48.0,40.5,65,37,16,29.94,29.79,13,3,15,0.00
2014-5-28,87.0,72.4,59.7,48.2,42.4,30.8,57,36,15,29.93,29.80,18,4,18,0.00
2014-5-29,87.2,71.3,52.8,49.1,38.1,27.1,63,33,13,29.91,29.81,12,2,12,0.00
2014-5-30,93.3,76.5,58.0,50.3,41.4,29.7,62,33,11,29.85,29.74,12,2,12,0.00
2014-5-31,89.6,73.3,57.7,51.5,45.1,35.1,67,41,15,29.89,29.78,12,2,12,0.00
2014-6-1,94.7,76.9,57.0,52.5,45.3,35.5,71,38,14,29.85,29.68,10,2,10,0.00
2014-6-2,94.4,77.4,61.4,51.5,41.0,19.3,54,31,7,29.78,29.69,15,3,16,0.00
2014-6-3,90.2,73.4,55.6,54.4,48.1,39.4,63,43,21,29.88,29.73,10,2,11,0.00
2014-6-4,94.5,77.8,60.1,56.4,51.0,37.8,78,45,16,29.83,29.70,16,2,18,0.00
2014-6-5,98.5,81.8,64.1,55.9,50.5,35.3,67,39,12,29.78,29.64,16,3,17,0.00
2014-6-6,97.0,81.7,66.4,56.4,51.8,41.3,67,39,16,29.74,29.63,18,3,18,0.00
2014-6-7,97.4,81.7,65.0,64.0,56.2,52.0,69,44,23,29.75,29.64,17,3,17,0.00
2014-6-8,101.3,85.6,67.5,63.8,59.6,53.1,77,45,21,29.75,29.61,16,3,20,0.00
2014-6-9,107.5,90.8,70.7,61.0,55.4,33.1,67,35,13,29.68,29.55,17,3,17,0.00
2014-6-10,98.8,86.5,71.1,63.9,52.9,38.0,45,32,20,29.66,29.56,19,4,19,0.00
2014-6-11,95.8,82.1,69.1,61.2,55.5,49.5,56,41,26,29.78,29.66,14,4,16,0.00
2014-6-12,92.5,77.6,64.0,61.7,56.6,47.5,75,51,30,29.86,29.74,18,4,19,0.00
2014-6-13,89.2,75.0,61.1,51.3,45.8,34.5,61,39,15,29.90,29.78,17,4,21,0.00
2014-6-14,91.0,75.2,57.5,51.3,46.1,32.7,71,40,13,29.86,29.72,22,3,22,0.00
2014-6-15,94.0,77.6,60.0,52.6,47.2,32.2,70,39,12,29.75,29.63,21,4,22,0.00
2014-6-16,86.1,73.9,60.7,51.3,46.4,34.8,70,41,18,29.83,29.74,25,4,25,0.00
2014-6-17,83.5,70.9,58.1,48.7,43.3,28.3,65,40,16,29.87,29.79,15,4,15,0.00
2014-6-18,89.9,75.4,57.3,55.4,47.2,41.9,72,40,20,29.90,29.81,13,2,13,0.00
2014-6-19,96.9,81.5,61.6,55.3,49.2,41.7,72,36,17,29.92,29.80,12,3,14,0.00
2014-6-20,96.5,79.8,62.2,53.3,49.1,40.3,67,38,16,29.90,29.78,12,2,13,0.00
2014-6-21,96.5,79.1,62.0,55.3,50.1,40.8,72,40,16,29.82,29.71,18,3,20,0.00
2014-6-22,95.8,78.0,60.4,52.6,46.0,33.6,65,37,12,29.86,29.74,14,3,14,0.00
2014-6-23,94.7,78.4,62.4,57.8,53.7,48.1,72,45,22,29.87,29.77,14,3,15,0.00
2014-6-24,96.5,81.2,64.6,58.7,54.0,45.4,74,43,19,29.90,29.78,15,4,16,0.00
2014-6-25,95.7,79.9,64.8,59.2,54.0,50.5,65,43,24,29.88,29.76,15,4,15,0.00
2014-6-26,87.2,75.5,64.6,59.9,56.1,48.2,78,52,34,29.92,29.79,15,5,16,0.00
2014-6-27,90.8,76.3,60.8,60.2,55.8,50.8,80,52,26,29.89,29.77,15,4,15,0.00
2014-6-28,94.3,79.1,66.2,62.8,57.8,50.6,79,52,25,29.87,29.75,13,4,13,0.00
2014-6-29,97.6,81.6,64.5,59.3,55.3,48.1,75,44,20,29.86,29.72,11,2,11,0.00
2014-6-30,102.8,86.9,68.8,63.9,58.2,40.0,70,41,15,29.78,29.64,11,2,12,0.00
2014-7-1,104.5,88.5,71.8,66.4,61.4,54.5,68,44,20,29.73,29.62,11,3,13,0.00
2014-7-2,102.0,86.0,70.6,67.0,60.7,54.9,71,45,23,29.77,29.68,11,2,11,0.00
2014-7-3,100.3,85.2,70.3,67.2,61.4,53.6,69,48,24,29.84,29.72,11,2,12,0.00
2014-7-4,104.2,87.4,68.8,63.7,59.6,50.3,74,43,17,29.87,29.77,8,2,10,0.00
2014-7-5,101.6,85.8,68.7,59.7,54.6,36.3,63,37,13,29.97,29.84,12,2,12,0.00
2014-7-6,97.7,84.6,70.4,59.5,54.0,46.8,55,37,21,29.96,29.80,12,2,12,0.00
2014-7-7,92.7,81.4,71.2,64.7,57.0,45.2,65,45,20,29.84,29.72,8,2,9,0.00
2014-7-8,105.8,87.2,67.0,60.9,54.9,38.3,70,39,12,29.83,29.71,8,2,10,0.00
2014-7-9,103.3,86.8,69.0,62.3,55.8,37.6,68,39,13,29.86,29.69,10,2,11,0.00
2014-7-10,99.3,84.2,68.4,63.5,56.9,43.8,72,44,17,29.85,29.71,9,2,9,0.00
2014-7-11,94.2,80.1,65.0,63.5,58.9,50.0,78,51,26,29.91,29.81,12,3,12,0.00
2014-7-12,95.0,79.8,65.6,63.9,60.8,57.1,76,54,30,30.00,29.85,12,3,13,0.00
2014-7-13,100.0,85.4,68.7,67.9,62.7,57.6,76,49,29,29.92,29.75,11,2,12,0.00
2014-7-14,101.2,88.4,75.9,68.3,65.2,58.8,73,49,26,29.82,29.76,12,2,12,0.00
2014-7-15,100.8,89.5,76.9,67.5,63.9,58.8,68,45,26,29.88,29.77,12,3,13,0.00
2014-7-16,95.3,84.1,72.6,65.5,62.6,59.3,70,50,32,29.92,29.77,13,3,13,0.00
2014-7-17,91.8,79.8,67.9,65.1,60.5,56.0,71,53,36,29.94,29.80,11,3,12,0.00
2014-7-18,92.2,79.4,66.5,66.2,61.9,58.1,75,57,37,29.94,29.79,12,3,12,0.00
2014-7-19,94.4,80.6,67.2,67.3,63.3,59.1,79,58,33,29.88,29.78,9,2,10,0.00
2014-7-20,96.5,84.3,72.1,68.1,65.4,61.3,77,55,36,29.88,29.76,12,2,15,0.00
2014-7-21,93.0,80.9,68.6,67.7,63.5,60.8,78,57,38,29.98,29.85,10,3,11,0.00
2014-7-22,95.8,82.4,69.2,67.1,63.9,58.4,76,56,31,29.99,29.89,11,3,12,0.00
2014-7-23,90.0,77.2,65.0,65.1,61.0,57.9,78,59,39,30.08,29.90,14,4,14,0.00
2014-7-24,95.3,80.6,65.2,63.7,60.2,57.1,79,53,29,29.95,29.73,12,2,12,0.00
2014-7-25,100.3,85.4,69.5,64.3,60.7,53.8,76,47,23,29.82,29.72,12,2,12,0.00
2014-7-26,104.5,87.5,70.7,65.0,61.0,52.3,77,45,19,29.86,29.75,11,2,12,0.00
2014-7-27,103.8,86.9,72.2,66.6,60.2,53.7,73,43,23,29.90,29.77,10,2,10,0.00
2014-7-28,97.3,84.9,74.0,63.6,58.6,50.6,63,43,23,29.97,29.86,6,1,6,0.00
2014-7-29,102.1,87.1,69.3,64.1,59.4,50.8,75,43,19,29.98,29.83,10,2,11,0.00
2014-7-30,95.8,83.3,76.7,71.1,65.6,61.7,78,56,35,29.91,29.81,13,1,14,0.06
2014-7-31,103.9,88.5,73.0,69.0,64.0,53.8,81,49,20,29.87,29.73,11,2,12,0.00
2014-8-1,105.0,88.3,71.9,64.5,60.8,53.9,75,43,24,29.83,29.70,11,3,12,0.00
2014-8-2,102.0,86.3,68.9,65.3,59.7,55.8,74,43,23,29.83,29.73,10,2,10,0.00
2014-8-3,87.8,82.3,73.9,64.7,59.1,53.0,59,46,35,29.90,29.79,11,2,11,0.00
2014-8-4,93.3,82.0,74.3,65.9,60.9,48.6,69,50,31,29.89,29.80,12,3,12,0.00
2014-8-5,93.4,80.2,66.4,66.0,62.4,55.6,83,57,32,29.97,29.85,13,3,15,0.00
2014-8-6,92.7,80.0,67.9,67.0,63.6,61.0,83,59,37,29.97,29.83,11,3,11,0.00
2014-8-7,96.9,83.7,70.4,66.3,64.5,62.0,79,55,34,29.89,29.75,11,2,11,0.00
2014-8-8,100.4,85.8,72.1,65.8,62.2,55.4,76,49,23,29.83,29.71,13,2,13,0.00
2014-8-9,100.7,85.5,70.4,62.7,59.5,53.0,71,45,22,29.86,29.74,10,2,11,0.00
2014-8-10,98.1,82.1,67.7,63.2,59.6,56.9,71,49,27,29.91,29.77,12,3,13,0.00
2014-8-11,102.2,84.3,67.8,63.2,58.4,51.1,77,46,20,29.90,29.75,12,2,13,0.00
2014-8-12,101.1,86.2,72.6,65.5,60.3,53.1,63,44,21,29.89,29.74,12,3,12,0.00
2014-8-13,95.7,81.3,68.1,63.4,60.2,54.6,73,51,31,29.90,29.77,16,3,16,0.00
2014-8-14,95.5,80.9,66.9,64.9,61.0,56.5,80,54,29,29.90,29.77,10,2,11,0.00
2014-8-15,98.7,82.8,66.1,62.8,57.8,47.8,77,47,19,29.93,29.81,10,2,10,0.00
2014-8-16,100.8,82.9,64.7,59.7,54.6,47.6,77,42,17,29.97,29.83,9,2,10,0.00
2014-8-17,100.0,82.7,65.8,60.0,57.7,51.3,73,46,22,29.93,29.76,10,2,10,0.00
2014-8-18,98.7,81.8,65.3,58.6,54.1,45.7,70,42,17,29.81,29.66,10,2,10,0.00
2014-8-19,91.3,78.4,65.4,62.6,56.4,48.3,76,49,28,29.77,29.67,12,2,12,0.00
2014-8-20,91.7,77.7,64.0,63.1,56.8,48.8,66,50,30,29.86,29.75,11,3,11,0.00
2014-8-21,95.0,79.6,64.8,63.2,60.2,57.5,80,54,31,29.91,29.77,12,3,13,0.00
2014-8-22,98.4,80.4,67.4,63.2,60.3,53.0,81,54,23,29.88,29.75,12,2,12,0.00
2014-8-24,93.3,86.3,75.9,61.0,56.8,52.9,56,38,26,29.78,29.67,11,2,13,0.00
2014-8-25,91.0,77.9,63.6,59.7,54.2,46.3,79,47,23,29.84,29.72,10,2,11,0.00
2014-8-26,91.0,76.0,60.8,61.3,57.4,50.7,77,55,30,29.95,29.83,9,2,9,0.00
2014-8-27,96.8,80.9,66.0,61.2,56.5,49.8,77,47,21,30.01,29.89,10,1,10,0.00
2014-8-28,100.0,83.3,68.3,60.2,54.0,44.5,62,38,22,29.98,29.80,8,2,9,0.00
2014-8-29,99.5,82.0,65.7,60.8,57.2,50.6,77,47,21,29.86,29.74,10,2,11,0.00
2014-8-30,76.4,70.1,66.4,59.8,58.8,56.3,78,68,50,29.82,29.78,6,1,6,0.00
2014-8-31,92.9,81.9,74.3,58.2,54.1,47.1,56,40,21,29.76,29.71,7,2,7,0.00
2014-9-1,98.2,81.3,63.2,58.9,56.3,49.5,79,46,20,29.79,29.67,11,2,11,0.00
2014-9-2,101.0,86.1,69.1,60.7,57.1,52.8,67,40,21,29.76,29.61,10,2,12,0.00
2014-9-3,95.9,80.5,66.2,60.9,57.4,52.0,72,48,24,29.70,29.57,10,2,12,0.00
2014-9-4,96.0,80.6,64.9,62.4,58.4,53.1,79,50,26,29.68,29.60,11,2,12,0.00
2014-9-5,97.2,81.0,65.1,61.5,58.2,53.1,76,49,24,29.80,29.68,9,2,9,0.00
2014-9-6,98.5,80.8,63.7,61.6,57.4,49.6,77,48,20,29.88,29.73,9,2,9,0.00
2014-9-7,98.9,80.8,63.3,61.7,58.7,50.4,82,51,20,29.82,29.64,10,2,11,0.00
2014-9-8,94.0,79.0,69.2,66.0,58.1,45.2,68,51,21,29.81,29.71,9,2,9,0.00
2014-9-9,91.6,75.3,59.8,58.7,52.4,42.1,80,49,18,29.92,29.80,10,2,10,0.00
2014-9-10,95.5,78.5,60.5,57.4,52.3,47.1,70,44,20,29.90,29.74,8,2,10,0.00
2014-9-11,98.9,82.5,63.8,57.5,54.1,48.4,72,42,19,29.85,29.71,9,1,10,0.00
2014-9-12,98.8,77.9,65.6,57.7,54.8,51.6,70,48,21,29.83,29.72,9,1,11,0.00
2014-9-13,102.9,92.9,78.6,60.3,56.4,51.4,52,31,19,29.75,29.64,9,2,10,0.00
2014-9-14,101.3,84.4,71.1,65.1,59.5,53.7,68,45,22,29.78,29.66,8,2,9,0.00
2014-9-15,101.5,85.3,68.0,62.4,59.5,55.1,76,45,23,29.81,29.70,9,2,10,0.00
2014-9-16,96.2,80.1,64.8,61.7,58.7,55.1,72,50,28,29.86,29.69,8,2,8,0.00
2014-9-17,99.7,83.0,66.4,62.3,59.0,54.9,77,48,24,29.75,29.63,9,2,9,0.00
2014-9-18,89.2,77.3,64.9,62.7,58.7,52.8,75,54,39,29.83,29.69,10,2,10,0.00
2014-9-19,87.3,76.0,65.6,63.9,61.1,58.8,80,61,43,29.86,29.75,11,2,11,0.00
2014-9-20,93.5,78.7,65.1,63.1,60.7,56.5,84,57,34,29.86,29.74,9,2,9,0.00
2014-9-21,89.1,76.6,65.3,59.8,58.3,55.8,78,55,34,29.93,29.80,13,2,13,0.00
2014-9-22,91.1,76.4,62.7,62.2,59.9,58.0,86,60,35,29.97,29.83,10,2,10,0.00
2014-9-23,93.2,77.7,63.8,63.6,60.8,58.6,84,59,33,29.94,29.79,8,1,8,0.00
2014-9-24,94.2,76.4,61.5,64.1,60.0,54.1,89,60,27,29.92,29.75,10,1,10,0.00
2014-9-25,85.5,71.6,63.0,64.3,60.2,55.8,89,69,41,29.94,29.81,18,3,18,0.00
2014-9-26,79.4,68.5,60.6,58.9,54.8,48.6,84,64,40,29.93,29.79,16,3,16,0.00
2014-9-27,78.0,65.7,55.5,56.0,51.3,47.5,82,61,35,29.91,29.77,16,3,16,0.00
2014-9-28,80.0,68.2,60.1,58.7,54.2,50.8,89,63,39,29.88,29.78,10,2,11,0.04
2014-9-29,81.6,68.4,55.7,56.1,53.6,51.0,89,62,36,29.99,29.87,11,2,14,0.00
2014-9-30,84.8,71.7,58.8,57.0,54.7,51.4,77,57,37,29.93,29.73,10,2,11,0.00
2014-10-1,84.8,70.7,57.8,57.2,55.4,53.3,87,61,36,29.89,29.77,9,2,9,0.00
2014-10-2,91.1,73.4,58.6,57.0,53.7,47.3,84,55,23,30.03,29.89,8,1,9,0.00
2014-10-3,94.6,75.2,59.3,56.8,52.6,45.8,77,50,20,30.08,29.95,10,1,10,0.00
2014-10-4,91.9,75.2,58.8,57.1,52.3,46.9,70,48,24,30.02,29.87,6,1,8,0.00
2014-10-5,95.1,77.6,62.4,55.6,51.2,45.4,65,43,22,29.94,29.81,6,1,9,0.00
2014-10-6,96.4,77.9,60.2,55.8,51.8,46.3,72,44,20,29.90,29.75,5,1,8,0.00
2014-10-7,95.6,78.0,61.8,57.0,52.5,48.4,67,44,22,29.86,29.73,8,1,9,0.00
2014-10-8,93.0,75.3,61.6,58.1,54.5,50.9,73,51,25,29.84,29.75,10,1,11,0.00
2014-10-9,92.0,74.4,59.0,56.8,48.8,38.9,72,45,16,29.90,29.80,8,2,11,0.00
2014-10-10,87.4,72.8,55.4,53.5,49.9,46.5,73,47,27,29.97,29.87,7,2,10,0.00
2014-10-11,88.9,72.5,58.5,55.1,51.7,46.9,72,51,27,30.00,29.88,8,1,9,0.00
2014-10-12,86.5,70.8,58.7,57.1,54.0,50.8,76,57,33,29.94,29.84,10,2,10,0.00
2014-10-13,95.3,74.5,56.6,56.5,51.7,45.4,81,49,20,29.97,29.83,7,1,7,0.00
2014-10-14,93.5,75.1,58.1,55.2,46.3,36.1,60,39,14,29.89,29.71,17,2,20,0.00
2014-10-15,78.0,68.8,60.6,55.5,53.2,51.1,75,59,40,30.00,29.83,11,2,11,0.00
2014-10-16,80.0,66.7,54.5,56.7,53.7,50.8,88,65,41,30.00,29.86,9,1,9,0.00
2014-10-17,77.8,66.1,54.3,55.7,53.3,49.6,84,65,44,29.93,29.87,10,1,11,0.00
2014-10-18,79.8,66.8,54.5,55.1,51.7,48.8,85,61,35,29.95,29.83,10,1,10,0.00
2014-10-19,82.5,68.1,54.9,55.4,51.9,48.0,81,59,35,29.90,29.78,8,1,8,0.00
2014-10-20,81.8,67.7,54.6,57.0,53.7,49.9,85,63,39,29.96,29.82,18,3,18,0.00
2014-10-21,73.9,63.0,54.3,55.3,51.5,46.1,88,67,50,30.05,29.92,7,2,12,0.00
2014-10-22,77.5,62.1,49.3,52.1,47.9,44.1,84,62,40,30.04,29.96,9,1,10,0.00
2014-10-23,79.4,64.7,50.3,52.7,50.2,45.7,86,62,37,30.05,29.93,6,1,9,0.00
2014-10-24,87.0,67.1,51.3,54.3,50.6,46.1,86,59,25,29.98,29.82,7,1,8,0.00
2014-10-25,82.8,66.0,53.2,56.1,50.1,45.8,79,59,31,30.05,29.90,21,3,21,0.00
2014-10-26,72.3,61.2,52.8,54.9,51.2,44.1,92,71,47,30.08,29.96,14,3,17,0.00
2014-10-27,73.1,58.5,46.4,48.8,45.2,41.1,83,63,39,30.03,29.93,8,1,8,0.00
2014-10-28,75.3,61.2,48.0,50.3,47.1,43.1,85,62,38,30.09,30.01,10,1,10,0.00
2014-10-29,79.0,62.9,50.3,50.8,48.3,44.8,85,62,35,30.11,29.96,6,1,9,0.00
2014-10-30,83.5,65.9,51.4,53.0,49.0,45.1,82,58,29,29.98,29.81,7,1,7,0.00
2014-10-31,76.8,63.5,52.6,55.7,50.0,41.5,94,63,44,29.88,29.69,23,3,26,0.43
2014-11-1,62.7,54.9,50.6,54.4,51.2,48.4,95,88,63,30.01,29.75,16,3,16,0.48
2014-11-2,62.9,52.8,44.8,52.9,48.1,43.3,97,85,62,30.15,30.00,11,1,11,0.01
2014-11-3,65.4,54.4,46.0,51.7,47.9,44.3,94,80,55,30.25,30.15,5,1,8,0.00
2014-11-4,68.4,55.8,44.8,52.4,48.3,42.6,93,77,53,30.31,30.19,8,1,8,0.00
2014-11-5,70.8,57.3,45.1,55.3,50.4,43.1,94,79,55,30.24,30.08,7,1,7,0.00
2014-11-6,80.5,62.0,48.2,60.2,53.9,46.2,95,77,43,30.19,30.09,7,1,7,0.00
2014-11-7,76.0,60.9,50.5,58.0,53.6,49.2,97,79,46,30.19,30.06,7,1,7,0.00
2014-11-8,75.3,61.6,50.5,58.9,54.2,48.3,94,78,51,30.12,29.98,6,0,6,0.00
2014-11-9,77.1,62.2,50.0,60.8,55.5,48.0,94,80,54,30.02,29.79,8,0,8,0.00
2014-11-10,75.7,61.7,50.5,60.1,55.1,48.5,95,81,56,29.81,29.73,6,1,7,0.00
2014-11-11,63.7,57.5,51.6,57.0,53.6,49.3,94,87,77,29.93,29.78,10,1,12,0.00
2014-11-12,69.7,58.2,50.9,56.0,51.9,49.5,96,81,55,30.00,29.92,8,1,9,0.00
2014-11-13,66.7,59.2,53.1,56.8,53.5,50.2,93,82,63,30.05,29.96,10,2,12,0.00
2014-11-14,67.9,57.1,51.3,58.4,53.9,49.3,97,90,65,30.09,29.99,9,1,9,0.00
2014-11-15,67.5,54.2,45.5,56.3,49.5,44.4,99,85,57,30.14,30.04,11,2,11,0.00
2014-11-16,66.7,54.5,46.2,53.7,47.9,43.6,96,80,52,30.25,30.11,9,1,9,0.00
2014-11-17,66.3,52.2,41.4,49.4,45.3,39.5,95,79,49,30.24,30.11,6,1,9,0.00
2014-11-18,67.8,53.2,39.3,47.0,43.1,37.1,94,72,36,30.17,30.04,7,1,8,0.00
2014-11-19,70.9,58.1,49.5,52.5,45.6,30.0,85,66,25,30.10,30.04,8,1,9,0.00
2014-11-20,63.8,55.4,46.6,52.6,47.5,40.4,92,75,63,30.09,29.96,8,2,10,0.06
2014-11-21,53.5,50.4,45.3,51.2,48.6,43.9,100,94,89,30.18,29.97,8,1,8,0.01
2014-11-22,64.3,54.3,43.7,55.0,49.4,42.3,97,85,61,30.19,30.07,7,1,7,0.00
2014-11-23,61.0,53.6,46.5,52.6,50.0,44.4,95,88,72,30.31,30.14,11,2,12,0.00
2014-11-24,63.1,52.0,44.9,50.8,46.8,43.1,95,83,61,30.43,30.28,7,1,7,0.00
2014-11-25,66.1,51.3,40.2,50.8,45.1,38.3,95,81,56,30.47,30.34,7,1,7,0.00
2014-11-26,68.8,53.0,40.7,51.1,45.8,38.8,95,78,50,30.35,30.20,6,1,7,0.00
2014-11-27,72.8,54.4,40.9,52.7,46.8,38.9,94,78,46,30.21,30.04,6,0,6,0.00
2014-11-28,74.8,55.5,41.5,52.1,45.9,39.3,94,73,40,30.04,29.84,7,0,7,0.00
2014-11-29,74.3,55.9,40.1,42.0,37.2,26.5,83,54,17,29.88,29.76,6,0,6,0.00
2014-11-30,67.6,56.2,45.4,52.2,42.6,35.2,83,62,36,30.04,29.75,10,1,10,0.01
2014-12-1,72.5,58.5,46.5,51.6,48.1,42.8,89,70,45,30.15,29.98,7,1,8,0.00
2014-12-2,58.2,54.8,51.3,56.5,52.5,47.1,96,92,83,29.99,29.74,24,2,24,0.29
2014-12-3,72.3,60.4,51.8,59.3,54.6,50.5,97,82,56,29.92,29.82,8,1,8,0.01
2014-12-4,70.8,60.2,53.5,58.4,52.4,46.6,92,76,53,30.02,29.90,11,1,12,0.00
2014-12-5,66.5,57.6,51.0,57.4,52.5,48.3,92,83,69,30.11,30.01,6,1,7,0.00
2014-12-6,71.7,58.5,50.4,56.1,51.9,48.3,94,80,55,30.22,30.10,8,1,8,0.00
2014-12-7,68.2,56.3,47.2,54.7,50.6,45.0,94,82,58,30.22,30.12,9,1,9,0.00
2014-12-8,67.0,54.1,44.1,54.9,49.3,42.4,96,85,60,30.20,30.09,11,1,12,0.00
2014-12-9,59.4,49.8,42.3,53.5,48.0,41.2,97,93,79,30.21,30.09,8,2,9,0.00
2014-12-10,57.2,50.5,47.7,52.7,49.1,46.3,98,95,83,30.09,29.86,15,2,15,0.01
2014-12-11,71.3,58.1,48.7,52.9,49.3,43.8,96,75,39,29.87,29.52,23,3,23,0.00
2014-12-12,71.3,52.1,47.9,53.5,49.5,42.9,96,92,38,30.08,29.55,17,4,28,1.30
2014-12-13,57.0,49.8,42.9,49.2,46.0,41.4,96,88,67,30.20,30.08,8,1,10,0.02
2014-12-14,55.0,45.3,39.1,48.1,42.9,38.0,98,92,71,30.17,30.04,7,1,7,0.00
2014-12-15,58.4,48.5,40.3,48.6,44.3,39.4,98,86,58,30.04,29.86,15,2,16,0.06
2014-12-16,62.2,53.1,44.2,51.7,47.7,42.5,96,82,61,30.01,29.90,7,1,9,0.05
2014-12-17,55.7,50.9,46.2,50.8,48.7,44.6,96,92,81,30.13,29.90,9,1,9,0.29
2014-12-18,61.6,51.2,43.0,48.5,45.1,41.6,97,81,54,30.21,30.10,8,1,9,0.00
2014-12-19,58.9,50.7,42.9,50.5,46.1,40.8,94,84,72,30.24,30.13,11,1,11,0.00
2014-12-20,64.1,54.8,48.8,53.3,48.9,45.2,94,81,65,30.25,30.13,7,1,7,0.00
2014-12-21,58.7,52.2,45.0,54.6,50.0,43.6,97,92,86,30.30,30.21,7,1,7,0.00
2014-12-22,66.0,57.3,51.8,56.8,54.1,50.4,97,89,69,30.25,30.14,8,1,8,0.00
2014-12-23,64.0,54.8,47.2,56.2,51.6,46.2,98,89,73,30.23,30.12,7,1,9,0.00
2014-12-24,63.4,54.6,46.7,56.8,51.0,44.1,96,88,74,30.12,29.85,20,2,22,0.06
2014-12-25,54.1,47.1,41.1,44.4,40.9,37.8,90,79,61,30.05,29.90,13,2,13,0.00
2014-12-26,55.0,44.2,35.5,40.8,37.5,33.4,93,79,54,30.26,30.02,9,1,9,0.00
2014-12-27,55.7,42.9,33.5,41.8,36.2,30.9,93,79,49,30.37,30.25,10,1,10,0.00
2014-12-28,55.0,43.0,33.9,41.6,36.5,31.8,93,79,56,30.33,30.23,7,0,7,0.00
2014-12-29,55.3,42.4,31.8,43.0,36.8,29.3,93,81,61,30.25,30.06,9,1,10,0.00
2014-12-30,42.7,40.0,35.0,40.8,37.9,33.5,96,92,89,30.09,30.02,8,1,9,0.00
2014-12-31,46.0,37.6,32.4,38.4,34.3,30.0,97,89,68,30.20,30.07,11,1,13,0.00
2015-1-1,54.0,39.4,27.5,34.7,29.2,25.3,93,71,36,30.17,30.08,7,1,7,0.00
2015-1-2,53.9,39.3,27.5,36.1,30.2,24.6,90,72,44,30.20,30.09,8,0,8,0.00